Temp
4 4 4 4 4 4 5 5 6 6 6 7 7 7 8 8 8 9 9 9 9 10 10 11 11 11 11 12 12 12 12 12 12 12 12 12 12 12 11 11 11 11 11 11 11
4 4 4 4 4 4 4 4 5 5 5 6 7 7 7 8 8 9 8 8 9 9 9 10 11 11 11 12 12 12 12 12 12 12 12 12 11 11 11 11 11 11 11 11 11
3 3 3 3 3 3 3 3 4 4 5 5 6 7 7 7 7 9 8 8 8 9 9 10 10 11 11 11 12 11 12 12 12 12 11 11 11 11 11 11 11 11 11 11 10
3 3 2 2 2 1 1 2 3 4 4 5 6 6 6 6 7 8 8 8 8 8 8 9 10 11 11 11 11 11 12 11 11 11 11 11 11 11 11 11 11 11 11 10 10
2 2 0 -1 -1 -1 0 1 2 3 4 4 5 6 6 6 7 7 8 7 8 8 8 9 10 10 11 11 11 11 11 11 11 11 11 11 10 10 11 11 11 11 10 10 9
2 1 -0 -2 -2 -2 -1 1 2 3 3 4 4 5 6 6 6 7 7 7 8 8 8 9 9 10 10 11 11 11 11 11 11 11 10 10 10 10 11 11 10 10 10 9 9
1 -0 -2 -3 -3 -2 -1 0 1 2 2 3 4 5 5 6 6 7 7 7 8 8 8 9 9 9 10 10 10 11 11 11 11 10 10 10 11 11 11 10 10 10 9 9 8
1 -1 -2 -2 -2 -1 -1 -0 0 1 2 3 4 4 5 6 6 7 7 7 8 8 9 8 9 10 10 10 10 10 10 10 10 10 10 10 11 10 10 10 10 10 9 8 8
-0 -2 -2 -2 -2 -1 -1 -1 0 1 2 3 3 4 5 6 7 7 7 8 8 8 9 8 9 9 9 10 10 10 10 10 10 10 10 10 10 10 10 10 10 9 9 8 8
-0 -1 -2 -2 -2 -1 -1 -0 1 1 2 3 4 5 6 6 7 7 7 8 8 8 8 8 9 9 9 9 9 10 10 10 10 10 10 10 10 10 10 10 9 9 9 8 8
0 -1 -1 -1 -1 -1 -0 0 1 2 3 4 4 5 6 6 7 7 7 8 8 8 8 8 9 9 9 9 10 10 10 10 10 10 9 10 10 10 10 10 9 9 9 8 7
1 0 -0 -0 -0 0 0 0 1 2 3 4 5 5 6 6 7 7 7 8 8 9 9 9 9 9 9 10 10 10 10 10 9 9 9 9 10 11 10 10 10 9 8 8 7
1 1 1 1 0 0 1 1 2 3 3 4 5 5 6 6 7 7 7 8 8 8 9 9 9 9 9 10 9 9 9 9 8 8 8 9 10 10 10 10 9 9 9 8 7
2 2 2 1 1 1 2 3 3 4 4 4 5 5 6 6 6 7 7 7 8 8 9 9 9 9 9 9 9 8 8 8 8 8 7 7 6 10 10 9 9 9 9 8 7
2 2 2 2 2 2 3 4 4 5 2 5 5 6 6 6 6 7 7 8 8 8 8 9 9 8 8 8 8 8 8 7 7 7 6 7 6 10 8 8 8 9 9 8 8
3 2 2 3 3 3 4 4 5 5 4 5 6 6 6 6 6 7 7 7 8 8 8 8 8 8 8 7 7 7 7 6 6 6 4 5 5 8 8 8 8 8 8 8 7
3 3 3 3 3 4 4 5 5 5 5 5 5 6 5 6 6 7 7 7 7 7 8 8 8 7 7 7 7 7 6 6 4 3 2 5 5 8 7 7 7 7 7 8 7
3 3 4 4 4 4 4 5 5 5 5 5 6 5 6 6 7 7 7 7 7 7 7 7 7 7 7 7 6 6 6 6 5 3 3 5 6 6 6 6 6 7 6 6 6
3 4 4 4 5 5 5 5 5 5 5 5 5 6 6 6 7 6 6 6 6 6 7 7 6 6 6 6 6 6 6 5 5 3 2 5 6 6 6 6 6 6 6 5 5
3 4 4 4 5 5 5 5 6 6 6 6 6 6 7 6 6 6 6 6 6 6 6 6 6 6 6 5 5 5 5 5 5 3 3 4 5 5 5 5 5 5 5 4 4
4 4 4 5 5 5 5 6 6 6 6 6 6 6 6 6 6 6 6 6 6 6 6 6 6 5 5 5 5 5 4 4 4 4 1 0 4 5 5 5 5 5 4 4 3
4 4 5 5 5 6 6 6 6 6 6 6 6 6 6 6 6 6 6 6 6 6 6 6 5 5 5 5 5 5 5 4 4 3 3 2 4 5 4 4 4 4 3 3 2
4 4 5 5 5 5 6 6 6 6 6 6 6 6 6 6 5 5 5 5 5 5 5 5 5 5 5 5 5 4 5 4 4 4 3 1 4 4 4 3 3 3 2 2 1
4 4 5 5 5 5 5 6 6 6 6 6 6 5 5 5 5 5 5 5 5 5 5 5 5 5 5 5 5 5 4 4 3 3 4 4 4 4 3 2 2 2 1 1 0
4 4 5 5 5 5 5 5 6 5 5 5 5 5 5 5 5 5 5 5 5 5 5 5 5 5 5 5 4 4 4 4 3 3 2 3 3 2 2 1 1 1 0 -0 -1
4 4 5 5 5 5 5 5 5 5 5 5 5 5 5 5 5 5 5 5 5 5 5 4 4 4 4 4 4 4 4 4 3 3 2 2 2 2 2 1 1 0 -0 -1 -1
4 4 4 5 5 5 5 5 5 5 5 5 5 5 5 5 5 5 4 4 4 4 4 4 3 3 3 3 3 3 4 3 3 3 2 2 2 1 1 0 -0 -1 -1 -1 -1
Height
3109 3108 3106 3106 3106 3106 3107 3109 3111 3114 3118 3122 3127 3131 3135 3138 3142 3146 3149 3154 3157 3160 3163 3167 3170 3173 3175 3177 3179 3181 3182 3182 3183 3184 3185 3186 3187 3187 3186 3185 3184 3183 3182 3181 3180
3103 3101 3100 3100 3100 3100 3101 3103 3105 3107 3111 3116 3122 3126 3131 3134 3138 3142 3150 3151 3154 3157 3160 3163 3168 3171 3173 3175 3178 3179 3180 3181 3182 3183 3184 3185 3185 3185 3185 3184 3183 3181 3180 3179 3178
3096 3094 3093 3093 3093 3094 3095 3097 3099 3101 3105 3111 3116 3122 3127 3131 3136 3142 3145 3148 3151 3154 3158 3160 3164 3168 3171 3173 3176 3178 3179 3180 3181 3182 3183 3183 3183 3183 3182 3181 3180 3179 3177 3176 3176
3090 3088 3087 3086 3087 3089 3091 3092 3095 3097 3100 3105 3111 3117 3123 3128 3136 3138 3142 3146 3149 3152 3156 3159 3162 3166 3169 3172 3174 3176 3178 3179 3180 3181 3181 3181 3181 3180 3179 3179 3177 3176 3174 3173 3172
3084 3082 3081 3082 3083 3085 3087 3089 3091 3093 3097 3102 3107 3113 3120 3125 3132 3135 3139 3144 3147 3150 3154 3158 3160 3164 3167 3170 3172 3174 3176 3177 3178 3179 3179 3178 3177 3177 3176 3175 3174 3173 3172 3170 3169
3078 3077 3077 3078 3080 3082 3084 3086 3087 3090 3093 3099 3105 3111 3117 3125 3130 3133 3137 3143 3146 3149 3152 3156 3158 3162 3165 3167 3171 3172 3174 3175 3175 3176 3176 3176 3175 3174 3173 3172 3171 3171 3170 3169 3167
3074 3073 3074 3075 3077 3080 3082 3083 3084 3087 3091 3097 3103 3109 3116 3125 3128 3132 3135 3141 3144 3147 3151 3154 3157 3160 3163 3166 3168 3169 3172 3173 3173 3174 3173 3172 3171 3171 3170 3169 3168 3168 3167 3167 3165
3071 3071 3072 3074 3076 3078 3079 3081 3082 3086 3091 3097 3103 3109 3117 3121 3126 3131 3134 3139 3142 3146 3149 3152 3155 3158 3160 3163 3166 3168 3170 3170 3171 3171 3170 3169 3166 3168 3167 3166 3165 3164 3164 3164 3163
3071 3071 3072 3074 3075 3076 3078 3079 3082 3086 3092 3098 3105 3110 3116 3121 3126 3129 3133 3137 3140 3143 3147 3150 3153 3155 3159 3162 3165 3166 3166 3168 3169 3168 3166 3166 3163 3164 3163 3162 3162 3160 3159 3160 3160
3072 3070 3072 3073 3074 3075 3077 3080 3084 3090 3095 3101 3106 3114 3117 3122 3125 3128 3131 3135 3138 3142 3146 3149 3152 3154 3157 3159 3160 3162 3164 3165 3164 3164 3162 3161 3159 3161 3159 3157 3156 3155 3155 3155 3156
3073 3072 3073 3074 3075 3077 3080 3084 3091 3096 3098 3106 3109 3112 3116 3121 3125 3127 3131 3134 3138 3141 3144 3147 3151 3152 3154 3157 3159 3160 3160 3161 3160 3160 3158 3157 3154 3156 3155 3152 3150 3150 3150 3150 3151
3076 3076 3076 3078 3080 3082 3086 3090 3093 3100 3104 3106 3109 3112 3116 3120 3125 3127 3131 3135 3137 3140 3143 3147 3148 3152 3153 3155 3156 3156 3157 3157 3157 3156 3154 3152 3149 3149 3147 3145 3144 3143 3143 3145 3146
3081 3082 3083 3084 3086 3089 3091 3094 3097 3102 3105 3109 3111 3114 3118 3122 3125 3127 3131 3133 3137 3140 3142 3144 3147 3149 3150 3152 3153 3153 3154 3154 3154 3152 3150 3147 3143 3143 3142 3140 3138 3138 3138 3138 3140
3087 3087 3089 3091 3095 3095 3097 3099 3102 3105 3109 3113 3114 3116 3119 3122 3126 3128 3130 3135 3137 3140 3142 3143 3145 3147 3148 3149 3151 3151 3151 3151 3150 3150 3149 3147 3142 3138 3137 3135 3134 3133 3134 3134 3136
3093 3093 3094 3097 3098 3100 3103 3104 3106 3108 3111 3117 3116 3118 3120 3124 3128 3128 3131 3134 3136 3138 3142 3142 3143 3144 3146 3147 3148 3149 3148 3148 3147 3147 3146 3144 3144 3137 3136 3134 3133 3133 3134 3134 3135
3098 3099 3100 3101 3103 3105 3105 3107 3110 3113 3112 3114 3116 3118 3121 3124 3126 3129 3132 3135 3136 3137 3138 3140 3141 3143 3144 3145 3146 3147 3146 3146 3144 3144 3144 3140 3142 3137 3136 3135 3134 3134 3134 3134 3134
3102 3103 3105 3106 3108 3107 3109 3111 3113 3110 3114 3115 3117 3119 3121 3124 3127 3128 3130 3133 3135 3137 3137 3138 3140 3141 3142 3143 3143 3144 3145 3145 3144 3143 3142 3140 3140 3136 3135 3134 3134 3133 3133 3134 3135
3104 3105 3107 3108 3109 3110 3112 3115 3113 3112 3113 3114 3116 3120 3124 3126 3126 3127 3130 3132 3133 3134 3135 3136 3138 3138 3138 3140 3141 3141 3143 3143 3144 3144 3141 3139 3136 3135 3134 3133 3133 3133 3133 3134 3134
3105 3107 3108 3110 3111 3112 3114 3115 3114 3113 3114 3115 3117 3119 3121 3123 3125 3127 3130 3131 3131 3132 3135 3134 3135 3136 3137 3137 3140 3139 3140 3142 3142 3141 3141 3136 3134 3135 3133 3133 3133 3133 3133 3132 3132
3105 3108 3110 3111 3112 3113 3115 3115 3115 3115 3115 3117 3118 3119 3121 3123 3125 3127 3128 3129 3130 3130 3131 3133 3134 3134 3135 3136 3137 3138 3140 3140 3140 3141 3140 3134 3132 3132 3133 3133 3132 3131 3131 3130 3129
3106 3108 3109 3111 3113 3114 3115 3116 3116 3116 3117 3119 3119 3120 3122 3123 3125 3127 3128 3129 3128 3129 3130 3131 3133 3135 3134 3134 3134 3136 3135 3137 3139 3138 3138 3138 3131 3130 3130 3130 3130 3129 3128 3126 3125
3106 3107 3109 3111 3114 3113 3114 3116 3117 3117 3118 3119 3120 3121 3122 3123 3124 3126 3127 3127 3128 3128 3129 3130 3130 3130 3132 3131 3132 3132 3132 3134 3135 3135 3134 3133 3130 3128 3127 3127 3127 3126 3124 3122 3121
3104 3107 3108 3110 3111 3112 3113 3115 3116 3117 3118 3119 3120 3120 3121 3122 3125 3124 3124 3125 3126 3127 3127 3128 3128 3129 3129 3131 3130 3129 3130 3131 3131 3131 3130 3132 3128 3126 3126 3124 3123 3121 3120 3118 3117
3104 3105 3106 3108 3109 3111 3112 3114 3115 3116 3116 3116 3117 3118 3119 3120 3121 3122 3123 3123 3124 3125 3125 3126 3126 3127 3128 3128 3128 3128 3127 3128 3128 3128 3125 3124 3124 3125 3123 3121 3119 3117 3115 3114 3112
3100 3103 3104 3105 3107 3109 3111 3112 3113 3114 3114 3114 3115 3116 3117 3118 3119 3120 3121 3122 3123 3124 3124 3125 3125 3125 3125 3125 3125 3125 3125 3124 3124 3123 3122 3120 3120 3119 3117 3116 3114 3113 3111 3109 3107
3098 3101 3102 3103 3105 3106 3108 3110 3112 3112 3113 3113 3114 3114 3115 3117 3118 3118 3120 3121 3122 3123 3123 3123 3123 3123 3123 3122 3122 3120 3120 3119 3118 3118 3117 3116 3114 3114 3113 3111 3110 3109 3106 3103 3101
3096 3099 3101 3101 3102 3104 3107 3109 3110 3111 3112 3112 3113 3114 3115 3117 3117 3118 3119 3120 3121 3121 3122 3122 3122 3122 3120 3119 3118 3117 3114 3113 3114 3113 3113 3112 3112 3110 3109 3108 3107 3104 3102 3099 3094
Wind_Speed
29 30 31 31 30 30 30 31 33 34 31 34 33 35 33 31 31 30 29 27 27 27 25 21 20 17 16 14 10 8 7 9 11 11 10 6 5 7 9 11 13 16 16 17 16
30 30 30 29 28 28 29 29 31 33 31 34 34 35 34 32 31 32 25 27 27 31 26 22 20 18 17 15 12 10 10 8 9 9 11 9 8 10 12 14 16 17 17 17 17
29 29 28 26 25 26 26 26 28 29 28 33 34 35 34 31 30 28 27 26 25 29 27 24 21 18 18 17 14 11 10 6 7 8 8 10 11 13 14 16 17 18 17 16 16
28 28 27 26 24 24 23 23 22 24 27 32 34 35 33 31 25 27 27 26 23 26 28 21 19 19 18 16 15 13 12 10 8 10 12 12 14 16 18 19 19 18 17 17 18
25 25 23 22 20 22 21 20 18 21 27 31 33 34 33 32 25 19 27 25 21 21 23 25 18 18 18 16 15 14 13 12 12 12 13 15 18 20 20 21 18 15 15 18 18
21 22 20 18 17 16 15 18 18 21 26 31 32 34 33 30 28 13 25 23 21 23 19 26 20 15 15 17 14 14 13 12 14 13 15 18 21 23 22 17 14 12 13 16 16
17 16 17 16 15 15 14 19 18 21 26 30 32 32 31 26 27 17 23 22 19 18 23 22 22 19 16 19 16 16 13 14 15 15 19 22 26 20 14 11 10 13 15 14 14
13 11 13 13 13 14 14 17 16 21 26 28 30 30 28 26 26 18 22 20 19 22 18 24 26 20 14 14 16 17 16 17 17 18 21 21 25 14 13 13 15 17 17 13 13
9 8 11 12 13 14 14 14 17 21 25 27 29 29 26 25 24 16 22 20 19 21 18 20 24 24 19 22 19 18 17 18 20 22 22 20 22 15 18 19 19 20 19 17 13
7 5 8 10 11 11 11 13 17 21 24 28 26 23 22 24 20 16 22 22 20 19 21 17 22 18 18 19 18 19 19 21 23 21 18 20 25 20 22 23 22 22 22 20 17
3 0 3 6 9 12 16 18 20 22 27 21 22 7 19 23 17 17 21 22 21 20 20 21 23 27 22 18 20 19 17 19 19 17 20 23 27 23 24 26 25 24 23 22 20
8 6 8 10 14 18 21 20 20 23 15 11 19 11 20 19 17 18 20 19 19 18 18 16 18 16 16 18 19 19 19 19 17 16 20 24 30 28 27 23 22 23 24 23 20
11 12 12 16 19 22 20 23 23 16 10 17 12 14 18 18 16 16 19 17 17 18 17 16 13 17 16 17 16 15 15 15 16 19 22 26 31 18 18 23 21 18 14 16 18
14 18 19 19 20 20 23 23 17 14 9 16 11 12 14 15 15 13 12 14 14 14 15 12 14 11 13 13 13 13 13 14 15 16 9 16 10 29 11 10 7 8 10 13 13
17 20 20 17 17 21 21 17 15 8 4 14 10 10 14 10 9 11 11 14 12 11 14 9 10 13 12 12 12 12 12 14 16 15 17 19 8 9 11 2 4 3 1 2 7
17 17 15 15 18 15 18 14 7 0 3 9 13 8 10 13 7 11 14 14 12 12 11 12 9 9 10 10 10 11 13 14 16 16 4 5 6 3 3 5 7 4 3 3 7
19 14 12 13 10 16 14 8 3 3 10 8 12 10 13 13 7 7 9 12 9 9 12 12 12 13 12 12 12 11 9 4 3 1 5 3 5 7 8 4 3 2 3 4 6
20 14 14 11 7 14 12 6 3 5 3 8 8 10 13 12 9 7 8 9 11 9 5 8 4 10 12 13 9 6 7 4 4 2 4 6 5 2 4 3 3 3 6 3 2
21 13 10 8 7 12 14 5 2 5 5 6 10 11 9 9 5 7 7 8 9 10 6 5 5 6 8 7 8 6 7 6 4 4 2 4 3 2 1 3 2 2 1 2 2
21 17 12 6 5 8 13 4 1 4 6 9 3 5 6 9 5 5 5 5 7 8 9 5 4 7 9 10 11 11 6 3 5 2 3 4 4 4 4 4 5 5 5 6 9
21 19 17 11 7 8 12 1 4 5 5 5 1 3 5 7 8 6 3 3 5 4 6 7 8 3 6 8 10 10 11 8 5 4 4 2 2 3 5 8 8 11 12 15 19
20 19 20 16 12 11 11 13 5 4 3 3 3 4 5 7 8 7 6 4 2 3 3 5 5 5 6 8 9 9 9 10 6 4 6 2 5 11 10 11 12 14 19 23 24
21 20 19 19 15 14 12 12 11 10 8 8 6 7 10 10 6 9 10 9 8 7 4 5 5 2 2 5 11 10 11 12 12 11 10 3 5 8 12 15 18 22 27 24 15
20 17 16 20 18 14 13 12 11 10 11 12 12 11 10 11 12 5 5 6 7 7 7 6 7 7 3 3 4 5 6 9 11 8 11 19 21 17 16 19 24 23 15 16 19
21 16 13 10 19 17 13 10 8 10 10 9 8 9 7 7 10 12 11 6 4 5 6 7 7 8 9 11 13 14 15 17 20 21 19 25 25 24 23 22 15 15 16 19 21
23 16 15 15 12 18 14 11 10 7 6 5 6 6 7 6 5 2 7 7 5 5 6 8 7 9 11 13 15 19 19 20 21 20 21 21 19 15 14 14 18 19 22 25 26
21 17 13 13 13 15 13 10 7 6 5 4 5 5 6 6 5 4 4 5 6 5 6 9 9 9 6 10 13 15 12 14 15 15 14 17 15 16 15 16 18 20 24 30 37
Wind_Direction
282 281 279 276 272 266 259 252 250 247 238 230 224 218 217 215 216 218 210 206 210 205 203 204 204 207 212 211 209 210 218 203 212 216 228 236 268 284 299 306 309 309 306 305 306
285 280 276 271 266 262 257 251 244 244 237 224 220 216 215 213 214 216 211 210 214 208 200 197 200 205 212 212 211 212 232 236 223 234 243 251 268 284 296 303 304 303 299 298 301
287 284 280 271 259 251 249 246 240 238 228 218 213 212 212 211 213 210 213 213 216 218 201 193 194 200 212 209 213 221 237 251 215 235 232 259 277 289 297 299 299 299 297 296 298
287 282 275 270 249 240 239 239 235 229 217 210 207 206 207 205 209 211 210 214 216 220 209 193 190 200 206 208 212 218 233 247 246 249 266 279 284 288 292 295 297 296 297 298 297
287 279 266 263 242 234 233 233 229 220 209 204 202 199 202 202 197 206 207 211 216 217 206 197 190 195 204 205 213 220 228 244 260 265 274 283 288 290 295 296 293 292 300 302 296
290 276 260 228 229 234 227 229 222 211 202 199 196 195 196 197 195 197 202 209 218 201 199 203 195 197 214 221 217 221 231 243 265 268 281 286 286 290 296 291 286 291 304 304 291
290 265 246 234 232 230 225 228 218 206 196 194 190 191 191 187 193 204 198 205 211 202 206 201 203 204 203 206 218 222 233 245 256 272 283 289 286 295 288 292 279 292 301 301 290
296 250 232 223 221 224 224 224 214 199 191 188 186 183 183 189 190 204 194 200 209 199 200 207 205 192 210 216 230 237 244 251 265 275 283 287 286 298 295 290 282 286 296 295 291
301 254 233 223 224 229 220 219 198 185 183 179 178 177 182 184 189 198 187 195 203 198 200 210 201 212 220 221 226 235 246 261 270 275 278 277 282 289 299 295 286 284 288 288 293
298 255 238 227 226 215 200 185 174 172 170 172 174 174 182 183 189 191 187 193 193 196 203 195 201 214 222 218 224 235 252 263 270 274 271 271 277 291 298 293 283 276 278 282 291
20 77 200 207 190 170 157 153 154 161 163 164 170 173 181 186 190 189 189 190 188 191 195 197 207 211 220 229 238 251 259 265 268 274 279 283 284 288 292 289 282 278 276 279 285
73 87 122 137 142 141 137 137 147 148 141 160 156 159 175 185 188 187 184 187 188 192 197 201 211 222 229 234 242 251 259 264 274 280 286 290 290 295 295 289 283 275 271 270 268
103 109 120 127 128 131 137 142 137 131 124 146 145 151 168 185 189 182 187 188 190 199 204 211 223 225 231 236 241 245 256 270 281 289 291 296 299 307 309 298 285 277 266 243 244
126 123 124 127 134 141 137 131 128 123 121 154 152 155 166 169 189 185 183 187 190 204 208 215 223 224 230 236 240 252 263 276 285 294 294 300 293 309 318 315 305 282 266 254 232
136 130 130 133 144 141 139 130 131 124 91 173 152 155 166 163 183 174 205 203 199 205 203 207 222 232 235 241 251 264 273 283 289 289 293 290 268 294 317 62 43 32 71 187 193
143 136 140 150 150 154 144 140 137 264 114 160 182 166 166 193 181 185 193 204 214 217 218 226 229 228 233 241 251 267 282 290 286 280 277 289 226 301 11 336 344 2 17 120 150
151 148 153 149 153 166 153 149 321 14 148 159 181 178 164 203 187 173 199 209 209 214 222 230 240 246 251 255 266 270 270 305 323 4 226 299 253 269 315 337 4 33 86 116 118
159 147 150 160 154 176 179 185 341 116 117 160 162 159 179 189 204 212 218 219 220 220 209 220 237 243 250 251 246 250 231 210 244 227 279 295 245 233 322 343 40 79 106 113 99
174 171 159 161 170 183 190 221 360 140 137 146 151 177 165 172 186 212 232 233 228 225 213 212 226 233 232 231 221 230 219 231 247 273 292 255 275 296 200 105 80 146 175 185 234
185 190 199 192 190 191 193 241 165 138 143 136 110 140 163 187 191 205 223 227 217 216 217 231 245 239 230 230 233 235 237 225 218 216 267 287 271 188 172 196 210 212 243 273 302
189 200 202 203 203 195 197 201 139 126 133 164 106 143 176 197 210 216 234 229 208 204 216 235 233 235 222 232 241 240 238 224 218 233 179 282 257 230 226 237 249 259 276 306 317
200 208 206 209 210 215 211 219 213 218 220 239 257 247 231 223 225 228 228 233 198 221 220 225 243 238 242 244 243 241 240 226 220 217 215 237 264 260 262 270 277 283 301 311 313
205 212 213 215 221 225 228 230 235 241 250 263 257 255 244 233 224 234 243 251 248 247 244 221 228 227 236 247 248 245 247 242 244 254 244 203 263 256 273 273 281 293 302 305 302
207 212 216 218 225 234 240 247 248 260 265 267 263 255 242 233 229 243 241 244 241 241 237 234 240 241 258 277 273 243 259 245 238 250 258 258 276 284 282 278 290 296 293 297 304
207 215 219 224 229 236 243 245 255 262 268 261 254 237 231 231 236 238 245 247 240 245 236 238 261 264 268 273 275 273 268 267 265 268 262 284 288 289 287 294 290 292 291 298 298
209 214 225 234 240 228 231 241 235 267 255 239 222 215 219 216 208 232 224 227 237 240 238 249 269 282 284 283 282 280 277 271 267 267 273 282 287 296 293 289 292 295 298 297 295
213 221 238 240 239 218 216 217 238 233 222 218 205 194 202 209 212 222 222 238 254 261 256 263 275 293 279 289 292 291 285 267 270 274 276 281 293 291 285 284 294 300 308 307 304